Wetbulb
42.95 43.80 43.69 42.50 42.83 42.40 41.74 41.28 40.80 40.82 40.83 40.55 40.77 40.95 41.37 41.38 40.67 40.40 40.16 38.98 38.80 39.31
42.43 41.81 41.97 41.32 42.29 42.29 41.09 40.04 39.52 39.67 39.35 39.43 39.35 39.59 39.86 40.04 39.45 39.94 39.85 39.65 39.09 38.29
42.27 41.86 41.74 41.63 40.95 40.52 40.18 39.29 38.91 38.80 38.71 38.70 38.68 38.63 38.83 39.10 39.33 38.78 39.38 38.76 38.01 37.59
41.90 41.60 41.55 41.29 41.34 40.84 40.05 38.94 38.12 37.75 37.50 37.30 37.19 37.50 37.45 37.53 37.91 37.47 37.54 38.00 37.02 36.28
41.99 41.69 41.06 41.11 40.98 40.78 39.41 38.50 37.47 37.05 36.61 36.54 36.47 36.64 36.10 36.09 36.90 36.67 36.42 36.55 36.21 35.48
41.10 40.55 40.52 41.00 40.77 40.21 38.83 37.82 37.29 36.36 36.22 36.04 35.77 35.52 35.67 35.54 36.47 36.74 36.74 36.45 35.68 35.31
41.70 41.17 41.04 41.28 40.51 39.89 38.81 37.48 36.94 36.48 35.94 35.57 35.43 35.12 35.13 35.33 36.54 36.93 36.68 36.35 35.82 35.32
42.71 41.89 40.99 40.22 39.59 39.23 37.80 37.15 36.56 35.59 35.39 35.33 35.00 34.82 34.89 35.62 36.72 36.14 35.52 35.58 35.06 34.89
42.87 41.19 39.96 39.42 38.99 38.15 37.09 36.63 35.74 34.94 34.80 34.74 34.48 33.72 34.24 35.50 36.21 35.53 34.55 33.80 34.34 34.69
43.56 41.28 39.80 39.09 38.25 36.95 36.36 36.43 35.13 34.62 34.09 33.99 34.58 33.44 34.18 35.18 35.34 34.86 34.50 33.94 33.48 33.23
43.52 41.15 40.07 38.41 37.23 37.09 37.20 35.60 34.77 34.00 33.78 33.60 33.75 33.22 33.86 34.47 34.68 34.38 34.02 33.82 33.47 32.76
44.02 41.20 39.31 37.07 36.81 37.07 35.64 34.37 33.38 33.57 33.34 32.64 33.19 32.92 32.83 33.33 33.20 33.02 32.96 33.70 33.52 33.38
43.03 41.30 38.96 38.20 37.18 36.96 35.36 34.42 33.51 32.57 33.01 33.25 32.32 32.74 32.66 32.72 32.85 31.99 31.99 33.00 33.16 33.74
41.26 40.01 39.99 38.57 37.04 34.93 33.41 32.53 32.28 31.67 32.57 32.50 31.97 31.56 31.77 32.68 32.57 31.91 31.49 31.35 32.11 33.38
MSLP
1021.50 1021.48 1021.52 1021.54 1021.43 1021.34 1021.39 1021.40 1021.47 1021.31 1021.15 1020.92 1020.60 1020.30 1020.02 1019.85 1019.74 1019.63 1019.50 1019.34 1019.15 1018.90
1021.38 1021.54 1021.45 1021.49 1021.51 1021.53 1021.65 1021.60 1021.59 1021.46 1021.17 1020.98 1020.74 1020.46 1020.19 1020.04 1019.93 1019.79 1019.69 1019.59 1019.43 1019.23
1020.94 1021.17 1021.25 1021.24 1021.12 1021.10 1021.16 1021.37 1021.45 1021.43 1021.35 1021.18 1020.98 1020.73 1020.44 1020.21 1020.09 1019.91 1019.81 1019.74 1019.58 1019.44
1020.32 1020.52 1020.52 1020.52 1020.69 1020.85 1020.96 1021.16 1021.29 1021.32 1021.20 1020.99 1020.75 1020.52 1020.35 1020.18 1020.08 1019.87 1019.73 1019.68 1019.64 1019.43
1019.82 1020.05 1020.16 1020.14 1020.22 1020.40 1020.55 1020.76 1020.97 1021.03 1021.01 1020.89 1020.74 1020.57 1020.43 1020.21 1020.03 1019.89 1019.61 1019.59 1019.61 1019.53
1019.03 1019.25 1019.34 1019.38 1019.59 1019.94 1020.31 1020.55 1020.72 1020.89 1020.74 1020.59 1020.42 1020.26 1020.07 1019.97 1019.85 1019.73 1019.72 1019.56 1019.45 1019.23
1018.02 1018.34 1018.53 1018.78 1019.14 1019.48 1019.81 1020.01 1020.12 1020.22 1020.29 1020.29 1020.20 1020.10 1019.99 1019.87 1019.70 1019.53 1019.36 1019.16 1019.22 1019.11
1017.22 1017.65 1018.01 1018.34 1018.72 1019.06 1019.40 1019.60 1019.80 1019.91 1019.85 1019.73 1019.65 1019.55 1019.45 1019.39 1019.31 1019.28 1019.15 1019.00 1018.90 1018.91
1016.27 1016.73 1017.09 1017.53 1017.97 1018.37 1018.78 1018.96 1019.09 1019.16 1019.20 1019.23 1019.31 1019.33 1019.50 1019.49 1018.97 1018.83 1018.99 1018.88 1018.65 1018.53
1014.89 1015.46 1016.02 1016.68 1017.27 1017.68 1017.99 1018.37 1018.67 1018.74 1018.91 1018.89 1018.84 1019.13 1019.16 1019.10 1018.89 1018.61 1018.51 1018.58 1018.48 1018.12
1013.84 1014.41 1015.11 1015.80 1016.32 1016.77 1017.19 1017.53 1017.78 1018.01 1018.23 1018.32 1018.41 1018.66 1018.74 1018.68 1018.54 1018.34 1018.35 1018.14 1018.14 1017.77
1013.24 1013.73 1014.33 1014.95 1015.49 1016.04 1016.55 1016.85 1017.11 1017.38 1017.63 1017.84 1017.94 1018.18 1018.34 1018.37 1018.06 1017.86 1017.76 1017.51 1017.54 1017.42
1012.43 1012.81 1013.23 1013.77 1014.49 1015.21 1015.78 1016.00 1016.50 1016.75 1017.00 1017.19 1017.46 1017.71 1017.87 1017.91 1017.75 1017.45 1017.02 1016.98 1016.82 1016.79
1011.94 1012.17 1012.43 1013.03 1013.79 1014.63 1015.29 1015.81 1016.12 1016.37 1016.53 1016.72 1016.88 1016.93 1017.26 1017.35 1017.29 1016.96 1016.63 1016.30 1016.12 1015.95
Wind_Speed
4 3 1 0 0 1 3 3 5 5 5 6 6 5 5 4 4 5 4 6 5 4
5 5 4 3 1 2 3 3 4 4 5 5 5 5 5 4 5 5 5 5 5 5
6 6 5 4 5 5 4 4 5 5 5 5 5 5 5 4 4 5 4 4 6 5
8 8 8 7 6 5 5 4 5 5 5 5 5 5 5 5 5 6 5 5 5 6
9 9 9 8 7 6 6 5 5 5 5 5 5 5 6 6 5 6 6 6 5 6
11 11 11 10 9 8 6 6 6 6 6 5 5 5 5 5 6 6 6 6 6 6
13 13 12 11 10 9 8 7 7 6 6 6 5 5 5 6 7 7 6 6 7 7
13 13 12 11 10 9 8 7 7 6 7 6 6 4 5 6 7 8 8 7 7 7
14 13 14 12 12 11 10 9 9 9 8 7 5 5 8 10 8 7 8 8 7 7
16 15 14 13 12 12 12 10 10 9 8 8 7 8 10 11 9 7 8 8 8 7
15 15 14 14 14 13 11 11 10 9 9 8 7 9 10 11 9 8 10 9 10 9
15 14 14 14 14 12 11 10 9 8 8 9 8 10 10 10 8 9 10 9 9 10
13 14 15 15 14 12 10 10 7 8 8 10 9 10 11 10 7 9 8 9 9 12
12 14 14 12 11 11 9 7 8 8 8 9 9 9 12 12 9 8 8 7 8 7
Wind_Direction
223 231 229 182 309 355 326 340 345 345 344 350 353 357 5 11 16 12 11 12 5 339
223 227 223 212 247 300 319 322 314 308 315 326 335 346 350 355 360 355 358 357 352 347
221 222 222 221 227 229 238 258 288 302 312 321 330 337 332 331 335 333 345 346 340 345
218 215 215 221 223 235 248 267 286 298 300 305 311 319 312 309 311 317 320 324 332 330
226 224 227 227 225 225 232 231 249 257 269 278 292 304 306 302 299 300 303 308 306 309
222 220 224 224 221 222 229 234 237 248 261 268 271 281 283 276 282 288 292 295 294 299
221 220 223 222 220 221 223 234 237 241 252 260 274 279 288 281 288 292 291 287 284 285
221 220 221 220 220 220 223 232 241 250 248 254 262 270 287 281 283 286 287 283 281 276
215 213 214 213 213 211 216 221 225 232 241 252 257 263 269 276 280 273 272 276 279 277
212 212 209 207 207 209 214 217 226 233 236 248 252 253 264 269 274 269 272 274 281 280
211 211 205 201 206 208 211 214 222 227 230 239 248 243 258 267 270 271 271 271 275 278
221 210 199 202 205 206 207 209 216 223 228 233 243 235 250 261 266 263 268 268 272 275
219 214 203 202 198 200 205 210 209 217 224 233 245 241 243 250 256 263 266 273 272 268
218 215 210 198 190 190 197 202 212 223 228 233 236 240 240 243 250 258 270 274 277 276